Showing default

COSMOS 2237, 22565

Orbit data source: Space-Track

COSMOS 2237, 22565 is a payload satellite owned by GRU (CIS) in LEO that was launched on Fri, 26 Mar 1993 UTC via a ZENIT-2 launch vehicle from the Tyuratam Missile And Space Complex (TTMTR). Payload-class satellites include a variety of spacecraft equipped with specific instruments for various scientific and technological missions. These include communications satellites like Starlink; space stations such as the ISS; scientific satellites like the Hubble; Earth observation satellites from companies like Planet Labs, Umbra, and HawkEye 360; GPS; miniature CubeSats for education and research; and military/defense satellites.

Loading next visibility...
Identifier
22565, 1993-016A
Orbit
LEO
Country
Flag of CISCIS
Related business
Manufacturer
Yuzhnoe
Mission
Defense Sigint
Bus & Motor
TSELINA-2, Unknown motor
Mass
3,250 kg wet, 3,250 kg dry
Launch date (UTC)
1993-03-26 (33 years ago)
Launch vehicle
ZENIT-2
Launch site
Tyuratam Missile And Space Complex (TTMTR)
Object type
Payload
Rocket body
Debris
Shape & HBR
Unknown shape, 9.5 m
Radar Cross Section
Large (>1 m²)

Expand to show TLE details & history
Last TLE update: 1 day ago

TLE from 1 day ago
0 COSMOS 2237
1 22565U 93016A   25301.47268614 -.00000195  00000-0 -79173-4 0  9996
2 22565  70.7726  83.1356 0008146 260.1300  99.8901 14.12402343680631
Epoch: 2025-10-28T11:20Z
TLE epoch observation values (Epoch: 2025-10-28T11:20:40.082Z)
Latitude
0.00006°
Longitude
-124.09107°
Altitude
854.561 km
Speed
7.425 km/s
True Right ascension
05h 32m 32s
True Declination
0° 00' 00"
Sunlit
Object was in full shadow at epoch
Visualization orbit readout
Latitude
Unknown
Longitude
Unknown
Altitude
Unknown
Speed
Unknown
Apparent Right ascension
Unknown
Apparent Declination
Unknown
Sunlit
N/A
Visualization observer readout
Local Sidereal Time
08:02:19
Azimuth
Unknown
Elevation
Unknown
Doppler factor
Unknown
Orbital elements
Apogee altitude
855 km
Perigee altitude
843.225 km
Semi-major axis
7,227.249 km
Eccentricity
0.00081
Inclination
70.7726°
RAAN
83.1356°
Arg. of periapsis
260.13°
True anomaly
99.98204°
Mean anomaly
99.8901°
Eccentric anomaly
99.93607°
Mean motion
3.53251 °/min
Orbital period
101.91 mins
BSTAR
-0.000079173
Loading maneuver chart data...
Computing Atmospheric mass density...
Loading historical data...
Loading historical data...
Loading historical data...
Loading historical data...
Loading historical data...
Loading historical data...
Loading historical data...

Documentation

Showing up to 5 results
|